| time (UTC) | temp C | wind direction | speed KPH | gust KPH | rain 1hr cm | rain 24hr cm | rain mn cm | humidity % | barometer mb |
| 20260504110456 | 25 | 0 | 0.0 | 0.0 | 0.15 | 3.61 | 0.61 | 70 | 984.5 |
| 20260504081957 | 28 | 237 | 0.0 | 3.2 | 0.00 | 8.64 | 0.00 | 53 | 982.7 |
| 20260504081457 | 28 | 0 | 0.0 | 0.0 | 0.00 | 8.64 | 0.00 | 53 | 982.7 |
| 20260504080957 | 28 | 135 | 0.0 | 1.6 | 0.00 | 8.64 | 0.00 | 53 | 982.6 |
| 20260504080458 | 28 | 135 | 0.0 | 1.6 | 0.00 | 8.64 | 0.00 | 53 | 982.6 |
| 20260504050457 | 31 | 270 | 0.0 | 3.2 | 0.00 | 8.64 | 0.00 | 46 | 983.2 |
| 20260504045958 | 31 | 276 | 0.0 | 3.2 | 0.00 | 8.64 | 0.00 | 47 | 983.1 |
| 20260504044458 | 31 | 250 | 0.0 | 3.2 | 0.00 | 8.64 | 0.00 | 48 | 983.5 |
| 20260504043957 | 31 | 107 | 0.0 | 1.6 | 0.00 | 8.64 | 0.00 | 49 | 983.5 |
| 20260504043457 | 31 | 104 | 0.0 | 1.6 | 0.00 | 8.64 | 0.00 | 49 | 983.5 |
| 20260504042958 | 31 | 55 | 0.0 | 1.6 | 0.00 | 8.64 | 0.00 | 49 | 983.6 |
| 20260504041458 | 31 | 202 | 0.0 | 3.2 | 0.00 | 8.64 | 0.00 | 49 | 983.7 |
| 20260504040958 | 31 | 265 | 0.0 | 3.2 | 0.00 | 8.64 | 0.00 | 50 | 983.6 |
| 20260504040458 | 30 | 265 | 0.0 | 3.2 | 0.00 | 8.64 | 0.00 | 50 | 983.6 |
| 20260504035457 | 30 | 270 | 0.0 | 1.6 | 0.00 | 8.64 | 0.00 | 50 | 983.6 |
| 20260504034958 | 30 | 38 | 0.0 | 3.2 | 0.00 | 8.64 | 0.00 | 50 | 983.5 |
| 20260504033957 | 30 | 270 | 0.0 | 1.6 | 0.00 | 8.64 | 0.00 | 51 | 983.8 |
| 20260504033458 | 30 | 350 | 0.0 | 6.4 | 0.00 | 8.64 | 0.00 | 51 | 983.9 |
| 20260504032458 | 29 | 314 | 0.0 | 1.6 | 0.00 | 8.64 | 0.00 | 51 | 983.7 |
| 20260504031958 | 29 | 11 | 0.0 | 8.0 | 0.00 | 8.64 | 0.00 | 51 | 983.9 |
| 20260504031458 | 29 | 14 | 0.0 | 8.0 | 0.00 | 8.64 | 0.00 | 51 | 983.9 |
| 20260504030458 | 30 | 234 | 0.0 | 4.8 | 0.00 | 8.64 | 0.00 | 51 | 984.0 |
| 20260504025958 | 29 | 264 | 0.0 | 4.8 | 0.00 | 8.64 | 0.00 | 52 | 984.2 |
| 20260504025457 | 28 | 248 | 0.0 | 8.0 | 0.00 | 8.64 | 0.00 | 52 | 984.1 |
| 20260504024958 | 28 | 264 | 0.0 | 8.0 | 0.00 | 8.64 | 0.00 | 52 | 983.9 |
| 20260504024458 | 28 | 315 | 1.6 | 3.2 | 0.00 | 8.64 | 0.00 | 53 | 984.0 |
| 20260504023958 | 28 | 189 | 0.0 | 9.7 | 0.00 | 8.64 | 0.00 | 53 | 983.9 |
| 20260504023457 | 28 | 199 | 0.0 | 9.7 | 0.00 | 8.64 | 0.00 | 53 | 983.7 |
| 20260504022958 | 27 | 211 | 4.8 | 9.7 | 0.00 | 8.64 | 0.00 | 54 | 983.8 |
| 20260504022458 | 27 | 270 | 0.0 | 3.2 | 0.00 | 8.64 | 0.00 | 54 | 983.9 |
| 20260504021958 | 27 | 102 | 0.0 | 3.2 | 0.00 | 8.64 | 0.00 | 54 | 983.8 |
| 20260504021458 | 27 | 114 | 0.0 | 3.2 | 0.00 | 8.64 | 0.00 | 53 | 983.6 |
| 20260504020458 | 28 | 323 | 0.0 | 4.8 | 0.00 | 8.64 | 0.00 | 53 | 983.7 |
| 20260504015958 | 28 | 323 | 0.0 | 4.8 | 0.00 | 8.64 | 0.00 | 52 | 983.6 |
| 20260504015457 | 28 | 68 | 0.0 | 1.6 | 0.00 | 8.64 | 0.00 | 52 | 983.8 |
| 20260504013958 | 29 | 9 | 0.0 | 3.2 | 0.00 | 8.64 | 0.00 | 52 | 984.1 |
| 20260504013458 | 29 | 13 | 0.0 | 3.2 | 0.00 | 8.64 | 0.00 | 53 | 984.0 |
| 20260504012457 | 29 | 107 | 0.0 | 6.4 | 0.00 | 8.64 | 0.00 | 53 | 984.0 |
| 20260504011958 | 29 | 101 | 0.0 | 6.4 | 0.00 | 8.64 | 0.00 | 52 | 984.0 |
| 20260504011458 | 29 | 99 | 0.0 | 3.2 | 0.00 | 8.64 | 0.00 | 52 | 984.1 |
| 20260504010957 | 30 | 108 | 0.0 | 3.2 | 0.00 | 8.64 | 0.00 | 52 | 984.1 |
| 20260504010458 | 30 | 293 | 0.0 | 1.6 | 0.00 | 8.64 | 0.00 | 52 | 984.1 |
| 20260504005959 | 30 | 187 | 0.0 | 1.6 | 0.00 | 8.64 | 0.00 | 52 | 983.9 |
| 20260504005458 | 30 | 258 | 0.0 | 4.8 | 0.00 | 8.64 | 0.00 | 52 | 984.1 |
| 20260504004958 | 31 | 155 | 0.0 | 4.8 | 0.00 | 8.64 | 0.00 | 53 | 983.7 |
| 20260504004458 | 30 | 87 | 0.0 | 4.8 | 0.00 | 8.64 | 0.00 | 53 | 983.7 |
| 20260504003958 | 31 | 248 | 0.0 | 8.0 | 0.00 | 8.64 | 0.00 | 54 | 983.7 |
| 20260504002458 | 30 | 269 | 3.2 | 11.3 | 0.00 | 8.64 | 0.00 | 56 | 983.7 |
| 20260504001959 | 30 | 237 | 1.6 | 6.4 | 0.00 | 8.64 | 0.00 | 58 | 983.6 |
| 20260504001458 | 30 | 0 | 0.0 | 0.0 | 0.00 | 8.64 | 0.00 | 60 | 983.4 |
| 20260504000958 | 29 | 0 | 0.0 | 0.0 | 0.00 | 8.64 | 0.00 | 60 | 983.3 |
| 20260504000458 | 29 | 0 | 0.0 | 0.0 | 0.00 | 8.64 | 0.00 | 59 | 983.4 |
| 20260503235958 | 29 | 90 | 0.0 | 4.8 | 0.00 | 8.64 | 0.00 | 60 | 983.3 |
| 20260503235458 | 29 | 68 | 0.0 | 4.8 | 0.00 | 8.64 | 0.00 | 60 | 983.4 |
| 20260503234958 | 29 | 66 | 1.6 | 4.8 | 0.00 | 8.64 | 0.00 | 60 | 983.1 |
| 20260503234457 | 29 | 88 | 0.0 | 1.6 | 0.00 | 8.64 | 0.00 | 59 | 983.5 |
| 20260503233958 | 29 | 0 | 0.0 | 0.0 | 0.00 | 8.64 | 0.00 | 59 | 983.3 |
| 20260503233458 | 29 | 0 | 0.0 | 0.0 | 0.00 | 8.64 | 0.00 | 60 | 983.2 |
| 20260503232958 | 28 | 270 | 0.0 | 3.2 | 0.00 | 8.64 | 0.00 | 61 | 983.5 |
| 20260503231958 | 28 | 198 | 0.0 | 1.6 | 0.00 | 8.64 | 0.00 | 62 | 983.8 |
| 20260503231458 | 28 | 0 | 0.0 | 0.0 | 0.00 | 8.64 | 0.00 | 63 | 983.6 |
| 20260503230458 | 27 | 0 | 0.0 | 0.0 | 0.00 | 8.64 | 0.00 | 69 | 983.6 |
| 20260503225958 | 26 | 0 | 0.0 | 0.0 | 0.00 | 8.64 | 0.00 | 70 | 983.8 |
| 20260503225457 | 26 | 0 | 0.0 | 0.0 | 0.00 | 8.64 | 0.00 | 69 | 983.7 |
| 20260503224958 | 26 | 90 | 0.0 | 1.6 | 0.00 | 8.64 | 0.00 | 70 | 983.5 |
| 20260503224458 | 26 | 90 | 0.0 | 1.6 | 0.00 | 8.64 | 0.00 | 70 | 983.5 |
| 20260503223958 | 25 | 90 | 0.0 | 1.6 | 0.00 | 8.64 | 0.00 | 70 | 983.4 |
| 20260503223458 | 25 | 0 | 0.0 | 0.0 | 0.00 | 8.64 | 0.00 | 70 | 983.4 |
| 20260503222958 | 26 | 0 | 0.0 | 0.0 | 0.00 | 8.64 | 0.00 | 70 | 983.2 |
| 20260503222459 | 25 | 0 | 0.0 | 0.0 | 0.00 | 8.64 | 0.00 | 71 | 983.2 |
| 20260503221959 | 25 | 61 | 0.0 | 3.2 | 0.00 | 8.64 | 0.00 | 71 | 983.4 |
| 20260503221459 | 25 | 75 | 0.0 | 3.2 | 0.00 | 8.64 | 0.00 | 71 | 983.1 |
| 20260503220458 | 25 | 90 | 0.0 | 3.2 | 0.00 | 8.64 | 0.00 | 72 | 983.6 |
| 20260503215959 | 25 | 68 | 0.0 | 1.6 | 0.00 | 8.64 | 0.00 | 72 | 983.3 |
| 20260503214459 | 25 | 73 | 0.0 | 3.2 | 0.00 | 8.64 | 0.00 | 72 | 983.2 |
| 20260503213958 | 25 | 77 | 0.0 | 3.2 | 0.00 | 8.64 | 0.00 | 72 | 983.2 |
| 20260503213459 | 25 | 90 | 0.0 | 1.6 | 0.00 | 8.64 | 0.00 | 71 | 983.0 |
| 20260503212959 | 25 | 0 | 0.0 | 0.0 | 0.00 | 8.64 | 0.00 | 71 | 983.3 |
| 20260503212459 | 25 | 0 | 0.0 | 0.0 | 0.00 | 8.64 | 0.00 | 71 | 983.3 |
| 20260503211959 | 25 | 0 | 0.0 | 0.0 | 0.00 | 14.40 | 0.00 | 71 | 983.0 |
| 20260503211458 | 25 | 0 | 0.0 | 0.0 | 0.00 | 2.62 | 0.00 | 71 | 982.9 |
| 20260503210958 | 26 | 0 | 0.0 | 0.0 | 0.00 | 2.62 | 0.00 | 71 | 983.0 |
| 20260503210458 | 26 | 66 | 0.0 | 3.2 | 0.00 | 2.62 | 0.00 | 71 | 983.1 |
| 20260503205959 | 26 | 295 | 0.0 | 4.8 | 0.00 | 2.62 | 0.00 | 71 | 983.2 |
| 20260503205459 | 26 | 311 | 1.6 | 4.8 | 0.00 | 2.62 | 0.00 | 71 | 983.0 |
| 20260503204959 | 26 | 335 | 0.0 | 4.8 | 0.00 | 2.62 | 0.00 | 71 | 983.0 |
| 20260503204459 | 26 | 225 | 0.0 | 1.6 | 0.00 | 2.62 | 0.00 | 71 | 982.9 |
| 20260503203958 | 26 | 46 | 0.0 | 1.6 | 0.00 | 2.62 | 0.00 | 71 | 983.1 |
| 20260503203459 | 26 | 45 | 0.0 | 1.6 | 0.00 | 2.62 | 0.00 | 72 | 982.7 |
| 20260503202959 | 26 | 0 | 0.0 | 0.0 | 0.00 | 2.62 | 0.00 | 72 | 982.9 |
| 20260503202458 | 26 | 0 | 0.0 | 0.0 | 0.00 | 2.62 | 0.00 | 72 | 982.8 |
| 20260503201959 | 26 | 0 | 0.0 | 0.0 | 0.00 | 2.62 | 0.00 | 72 | 982.9 |
| 20260503201459 | 26 | 0 | 0.0 | 0.0 | 0.00 | 2.62 | 0.00 | 72 | 982.9 |
| 20260503200459 | 26 | 0 | 0.0 | 0.0 | 0.00 | 2.62 | 0.00 | 72 | 982.6 |
| 20260503195958 | 26 | 0 | 0.0 | 0.0 | 0.00 | 2.62 | 0.00 | 71 | 982.7 |
| 20260503195459 | 26 | 61 | 0.0 | 1.6 | 0.00 | 2.62 | 0.00 | 71 | 982.6 |
| 20260503194958 | 26 | 64 | 0.0 | 1.6 | 0.00 | 2.62 | 0.00 | 71 | 982.4 |
| 20260503193459 | 26 | 0 | 0.0 | 0.0 | 0.00 | 2.62 | 0.00 | 71 | 982.4 |
| 20260503192958 | 26 | 90 | 0.0 | 1.6 | 0.00 | 2.62 | 0.00 | 72 | 982.4 |
| 20260503192459 | 26 | 90 | 0.0 | 1.6 | 0.00 | 2.62 | 0.00 | 71 | 982.2 |
| 20260503191958 | 26 | 135 | 0.0 | 1.6 | 0.00 | 2.62 | 0.00 | 71 | 982.1 |
| 20260503191459 | 26 | 135 | 0.0 | 1.6 | 0.00 | 2.62 | 0.00 | 71 | 982.4 |
| 20260503190958 | 26 | 0 | 0.0 | 0.0 | 0.00 | 2.62 | 0.00 | 71 | 982.4 |
| 20260503190459 | 26 | 0 | 0.0 | 0.0 | 0.00 | 2.62 | 0.00 | 71 | 982.2 |
| 20260503185458 | 26 | 0 | 0.0 | 0.0 | 0.00 | 2.62 | 0.00 | 72 | 982.3 |
| 20260503184959 | 26 | 0 | 0.0 | 0.0 | 0.00 | 2.62 | 0.00 | 72 | 982.4 |
| 20260503183459 | 26 | 0 | 0.0 | 0.0 | 0.00 | 2.62 | 0.00 | 71 | 982.2 |
| 20260503182459 | 26 | 0 | 0.0 | 0.0 | 0.00 | 2.62 | 0.00 | 71 | 982.6 |
| 20260503181959 | 26 | 0 | 0.0 | 0.0 | 0.00 | 2.62 | 0.00 | 71 | 982.5 |
| 20260503181458 | 26 | 0 | 0.0 | 0.0 | 0.00 | 2.62 | 0.00 | 71 | 982.4 |
| 20260503180959 | 26 | 0 | 0.0 | 0.0 | 0.00 | 2.62 | 0.00 | 71 | 982.3 |
| 20260503180458 | 26 | 158 | 0.0 | 1.6 | 0.00 | 2.62 | 0.00 | 71 | 982.3 |
| 20260503175959 | 26 | 135 | 0.0 | 1.6 | 0.00 | 2.62 | 0.00 | 71 | 982.1 |
| 20260503175459 | 26 | 90 | 0.0 | 1.6 | 0.00 | 2.62 | 0.00 | 71 | 982.1 |
| 20260503174959 | 26 | 0 | 0.0 | 0.0 | 0.00 | 2.62 | 0.00 | 71 | 982.2 |
| 20260503174458 | 26 | 225 | 0.0 | 4.8 | 0.00 | 2.62 | 0.00 | 71 | 982.4 |
| 20260503173959 | 26 | 225 | 0.0 | 4.8 | 0.00 | 2.62 | 0.00 | 71 | 982.5 |
| 20260503173458 | 26 | 314 | 0.0 | 1.6 | 0.00 | 2.62 | 0.00 | 71 | 982.3 |
| 20260503172459 | 26 | 0 | 0.0 | 0.0 | 0.00 | 2.62 | 0.00 | 71 | 982.3 |
| 20260503171958 | 26 | 225 | 0.0 | 1.6 | 0.00 | 2.62 | 0.00 | 71 | 982.5 |
| 20260503171459 | 26 | 225 | 0.0 | 1.6 | 0.00 | 2.62 | 0.00 | 71 | 982.3 |
| 20260503170958 | 26 | 270 | 0.0 | 1.6 | 0.00 | 2.62 | 0.00 | 71 | 982.4 |
| 20260503170459 | 26 | 270 | 0.0 | 1.6 | 0.00 | 2.62 | 0.00 | 72 | 982.4 |
| 20260503150959 | 27 | 55 | 0.0 | 1.6 | 0.00 | 2.62 | 0.76 | 73 | 982.6 |
| 20260503150459 | 27 | 45 | 0.0 | 1.6 | 0.00 | 2.62 | 0.76 | 73 | 982.7 |
| 20260503130459 | 27 | 0 | 0.0 | 0.0 | 0.00 | 2.62 | 0.76 | 71 | 981.8 |